DW8453 Bekkjarvik NO current weather conditions

sailwx.info

Wind from 265

Air temperature -0.0° C
Dewpoint -0.0° C

Last reported at 2017-Nov-24 20:07 UTC.
Time now 2017-Nov-24 21:03 UTC

Location: N 60°01' E 005°12'.
View on Google Maps.

See reports from other nearby stations

  
Tides and Currents Weather Stations Pressure Air Temp Water Temp Dewpoint Dewpoint Depression Visibility Wind Speed Wind Dir Waves Ship Positions
date/time (UTC)wind fromknots sea level pressurealtimeterstation pressurevisibilityair tempwater tempwave heightnotes
2017-Nov-24 20:07 265 -0.0
2017-Nov-24 20:02 248 22 gusting 18 5.6
2017-Nov-24 19:52 247 21 gusting 19 5.6
2017-Nov-24 19:47 247 24 gusting 18 5.6
2017-Nov-24 19:42 247 10 gusting 18 5.0
2017-Nov-24 17:08 -0.0
2017-Nov-24 15:58 269 28 gusting 28 4.4
2017-Nov-24 15:48 236 24 gusting 19 4.4
2017-Nov-24 15:43 234 21 gusting 19 3.9
2017-Nov-24 15:33 224 18 gusting 19 3.3
2017-Nov-24 15:28 209 27 gusting 22 3.3
2017-Nov-24 15:22 215 24 gusting 20 3.3
2017-Nov-24 15:17 224 27 gusting 26 3.3
2017-Nov-24 15:13 179 21 gusting 21 3.3
2017-Nov-24 15:08 222 28 gusting 27 3.3
2017-Nov-24 15:02 269 31 gusting 27 3.3
2017-Nov-24 14:42 256 28 gusting 31 4.4
2017-Nov-24 14:37 258 22 gusting 33 4.4
2017-Nov-24 14:32 255 37 gusting 30 5.0
2017-Nov-24 14:28 242 40 gusting 33 5.0
2017-Nov-24 14:22 252 23 gusting 31 5.0
2017-Nov-24 14:17 247 26 gusting 22 5.0
2017-Nov-24 14:13 224 19 gusting 27 5.0
2017-Nov-24 14:08 269 26 gusting 27 5.0
2017-Nov-24 13:57 247 18 gusting 19 4.4
2017-Nov-24 13:52 270 14 gusting 14 4.4
2017-Nov-24 13:48 270 17 gusting 18 5.0
2017-Nov-24 13:43 248 24 gusting 22 5.0
2017-Nov-24 13:38 270 20 gusting 22 5.0
2017-Nov-24 13:33 259 20 gusting 18 5.0
2017-Nov-24 13:28 241 16 gusting 21 5.0
2017-Nov-24 13:23 247 25 gusting 20 5.0
2017-Nov-24 13:08 291 22 gusting 21 5.6
2017-Nov-24 12:53 258 26 gusting 26 5.0
2017-Nov-24 12:48 259 18 gusting 20 5.0
2017-Nov-24 12:43 290 20 gusting 19 5.0
2017-Nov-24 12:37 263 19 gusting 20 5.0
2017-Nov-24 12:33 260 17 gusting 30 5.0
2017-Nov-24 12:28 284 33 gusting 35 5.6
2017-Nov-24 12:23 247 41 gusting 35 6.1
2017-Nov-24 12:18 285 24 gusting 27 5.6
2017-Nov-24 12:02 270 29 gusting 26 5.0
2017-Nov-24 11:58 292 24 gusting 24 5.0
2017-Nov-24 11:52 258 20 gusting 20 4.4
2017-Nov-24 11:43 270 10 gusting 15 4.4
2017-Nov-24 11:38 306 15 gusting 17 4.4
2017-Nov-24 11:32 284 18 gusting 19 5.0
2017-Nov-24 11:27 300 24 gusting 19 5.0
2017-Nov-24 11:23 298 26 gusting 26 5.0
2017-Nov-24 11:18 287 31 gusting 24 5.0
2017-Nov-24 11:13 232 25 gusting 26 5.0
2017-Nov-24 11:08 249 30 gusting 26 4.4
2017-Nov-24 11:03 267 21 gusting 19 4.4
2017-Nov-24 10:58 246 17 gusting 19 3.9
2017-Nov-24 10:53 258 20 gusting 19 4.4
2017-Nov-24 10:48 235 22 gusting 20 4.4
2017-Nov-24 10:43 230 18 gusting 22 4.4
2017-Nov-24 10:38 255 21 gusting 30 4.4
2017-Nov-24 10:33 285 24 gusting 25 3.9
2017-Nov-24 10:28 240 30 gusting 32 4.4
2017-Nov-24 10:23 208 33 gusting 32 4.4
2017-Nov-24 10:18 265 27 gusting 25 4.4
2017-Nov-24 10:13 247 21 gusting 27 4.4
2017-Nov-24 10:03 266 22 gusting 19 4.4
2017-Nov-24 09:58 245 19 gusting 17 3.9
2017-Nov-24 09:53 265 22 gusting 21 4.4
2017-Nov-24 09:48 269 19 gusting 21 4.4
2017-Nov-24 09:43 252 13 gusting 13 3.9
2017-Nov-24 09:38 291 17 gusting 14 3.9
2017-Nov-24 09:33 269 14 gusting 12 3.9
2017-Nov-24 09:28 269 13 gusting 22 3.9
2017-Nov-24 09:13 247 22 gusting 26 3.3
2017-Nov-24 09:08 269 23 gusting 19 2.8
2017-Nov-24 09:03 304 26 gusting 25 3.3
2017-Nov-24 08:58 265 32 gusting 26 3.3
2017-Nov-24 08:43 239 20 gusting 19 4.4
2017-Nov-24 08:38 219 19 gusting 22 4.4
2017-Nov-24 08:33 242 22 gusting 21 4.4
2017-Nov-24 08:28 255 12 gusting 12 3.9
2017-Nov-24 08:23 234 14 gusting 14 3.9
2017-Nov-24 08:13 247 21 gusting 19 3.9
2017-Nov-24 08:03 226 30 gusting 24 4.4
2017-Nov-24 07:58 262 24 gusting 24 4.4
2017-Nov-24 07:53 241 13 gusting 11 4.4
2017-Nov-24 07:48 247 13 gusting 15 4.4
2017-Nov-24 07:42 232 15 gusting 22 4.4
2017-Nov-24 07:32 248 22 gusting 28 4.4
2017-Nov-24 07:27 252 24 gusting 26 4.4
2017-Nov-24 07:23 248 37 gusting 28 4.4
2017-Nov-24 07:18 269 20 gusting 24 4.4
2017-Nov-24 06:58 224 20 gusting 15 4.4
2017-Nov-24 06:53 218 21 gusting 21 4.4
2017-Nov-24 06:48 233 28 gusting 26 4.4
2017-Nov-24 06:43 258 13 gusting 13 4.4
2017-Nov-24 06:38 224 15 gusting 15 4.4
2017-Nov-24 06:27 240 20 gusting 18 4.4
2017-Nov-24 06:23 240 28 gusting 27 4.4
2017-Nov-24 06:17 211 17 gusting 18 4.4
2017-Nov-24 06:03 247 31 gusting 30 5.0
2017-Nov-24 05:58 261 28 gusting 24 5.0
2017-Nov-24 05:53 261 27 gusting 27 5.0
2017-Nov-24 05:48 258 22 gusting 24 5.0
2017-Nov-24 05:38 268 30 gusting 26 5.0
2017-Nov-24 05:33 242 25 gusting 19 5.6
2017-Nov-24 05:28 261 22 gusting 21 5.6
2017-Nov-24 05:22 269 21 gusting 19 5.0
2017-Nov-24 05:18 247 22 gusting 21 5.0
2017-Nov-24 05:13 269 24 gusting 20 5.0
2017-Nov-24 05:08 254 25 gusting 24 5.0
2017-Nov-24 05:02 250 21 gusting 27 5.0
2017-Nov-24 04:58 247 26 gusting 26 5.0
2017-Nov-24 04:53 269 19 gusting 19 5.0
2017-Nov-24 04:48 247 20 gusting 19 5.0
2017-Nov-24 04:38 257 19 gusting 19 4.4
2017-Nov-24 04:32 269 21 gusting 19 4.4
2017-Nov-24 04:27 275 19 gusting 19 5.0
2017-Nov-24 04:23 291 22 gusting 21 5.0
2017-Nov-24 04:17 243 18 gusting 15 4.4
2017-Nov-24 04:13 224 14 gusting 13 4.4
2017-Nov-24 04:08 226 15 gusting 15 4.4
2017-Nov-24 03:58 224 15 gusting 15 4.4
2017-Nov-24 03:53 249 13 gusting 15 4.4
2017-Nov-24 03:48 269 24 gusting 24 4.4
2017-Nov-24 03:43 225 19 gusting 19 4.4
2017-Nov-24 03:38 237 32 gusting 27 4.4
2017-Nov-24 03:33 232 18 gusting 15 4.4
2017-Nov-24 03:27 247 19 gusting 19 4.4
2017-Nov-24 03:23 232 19 gusting 19 5.0
2017-Nov-24 03:18 229 15 gusting 18 5.0
2017-Nov-24 03:12 243 15 gusting 21 5.0
2017-Nov-24 03:08 244 24 gusting 24 5.0
2017-Nov-24 03:03 268 26 gusting 21 5.0
2017-Nov-24 02:58 238 18 gusting 19 5.0
2017-Nov-24 02:53 223 19 gusting 18 5.0
2017-Nov-24 02:48 247 12 gusting 13 4.4
2017-Nov-24 02:43 248 16 gusting 17 4.4
2017-Nov-24 02:38 261 14 gusting 25 4.4
2017-Nov-24 02:32 269 21 gusting 18 4.4
2017-Nov-24 02:28 257 19 gusting 18 4.4
2017-Nov-24 02:23 252 19 gusting 18 4.4
2017-Nov-24 02:18 229 13 gusting 11 4.4
2017-Nov-24 02:13 244 11 gusting 17 4.4
2017-Nov-24 02:07 224 16 gusting 19 4.4
2017-Nov-24 02:03 250 19 gusting 19 4.4
2017-Nov-24 01:57 211 13 gusting 18 4.4
2017-Nov-24 01:53 212 18 gusting 18 4.4
2017-Nov-24 01:48 223 17 gusting 14 4.4
2017-Nov-24 01:43 238 15 gusting 14 4.4
2017-Nov-24 01:38 255 12 gusting 11 4.4
2017-Nov-24 01:33 224 19 gusting 18 4.4
2017-Nov-24 01:28 241 21 gusting 18 4.4
2017-Nov-24 01:23 234 17 gusting 21 4.4
2017-Nov-24 01:18 247 18 gusting 21 4.4
2017-Nov-24 01:08 206 19 gusting 19 4.4
2017-Nov-24 01:03 244 24 gusting 20 4.4
2017-Nov-24 00:58 224 13 gusting 17 4.4
2017-Nov-24 00:53 230 21 gusting 17 4.4
2017-Nov-24 00:48 247 17 gusting 20 4.4
2017-Nov-24 00:43 264 13 gusting 19 4.4
2017-Nov-24 00:37 229 14 gusting 17 4.4
2017-Nov-24 00:33 245 19 gusting 17 4.4
2017-Nov-24 00:27 244 19 gusting 21 4.4
2017-Nov-24 00:23 242 22 gusting 19 4.4
2017-Nov-24 00:18 267 19 gusting 26 5.0
2017-Nov-24 00:12 249 24 gusting 21 5.0
2017-Nov-24 00:07 267 21 gusting 18 5.0
2017-Nov-24 00:02 270 20 gusting 18 5.0
2017-Nov-23 23:58 250 24 gusting 20 5.0
2017-Nov-23 23:52 266 21 gusting 20 5.0
2017-Nov-23 23:48 247 18 gusting 17 4.4
2017-Nov-23 23:43 251 23 gusting 21 4.4
2017-Nov-23 23:38 243 12 gusting 10 4.4
2017-Nov-23 23:32 230 12 gusting 10 3.9
2017-Nov-23 23:28 227 12 gusting 11 3.9
2017-Nov-23 23:23 247 11 gusting 10 4.4
2017-Nov-23 23:18 262 37 gusting 31 5.0
2017-Nov-23 23:12 267 15 gusting 19 4.4
2017-Nov-23 23:09 246 24 gusting 25 4.4
2017-Nov-23 23:02 269 26 gusting 25 4.4
2017-Nov-23 22:58 269 25 gusting 24 5.0
2017-Nov-23 22:53 270 37 gusting 31 5.0
2017-Nov-23 22:48 241 23 gusting 25 5.0
2017-Nov-23 22:42 250 22 gusting 25 5.0
2017-Nov-23 22:38 268 13 gusting 15 5.0
2017-Nov-23 22:33 263 13 gusting 15 5.0
2017-Nov-23 22:28 247 22 gusting 26 5.0
2017-Nov-23 22:23 266 14 gusting 26 4.4
2017-Nov-23 22:17 268 12 gusting 11 4.4
2017-Nov-23 22:13 246 10 gusting 11 4.4
2017-Nov-23 22:08 267 16 gusting 15 4.4
2017-Nov-23 22:02 286 17 gusting 19 4.4
2017-Nov-23 21:58 233 19 gusting 19 4.4
2017-Nov-23 21:52 269 17 gusting 18 4.4
2017-Nov-23 21:47 201 14 gusting 13 4.4
2017-Nov-23 21:43 201 14 gusting 13 4.4
2017-Nov-23 21:37 235 18 gusting 18 4.4
2017-Nov-23 21:32 209 18 gusting 20 4.4
2017-Nov-23 21:28 217 14 gusting 13 4.4
2017-Nov-23 21:22 238 14 gusting 13 4.4
2017-Nov-23 21:18 234 11 gusting 11 4.4
2017-Nov-23 21:12 228 11 gusting 11 3.9
2017-Nov-23 21:07 263 11 gusting 11 3.9
2017-Nov-23 21:02 207 9 gusting 10 3.9
2017-Nov-23 20:57 244 14 gusting 19 3.9
2017-Nov-23 20:52 237 18 gusting 19 3.9
2017-Nov-23 20:47 233 11 gusting 14 4.4
2017-Nov-23 20:42 270 14 gusting 13 3.9
2017-Nov-23 20:37 292 13 gusting 12 3.9
2017-Nov-23 20:32 259 15 gusting 13 3.9
2017-Nov-23 20:27 234 17 gusting 15 3.9
2017-Nov-23 20:22 234 13 gusting 13 3.9
2017-Nov-23 20:17 237 12 gusting 18 3.9
2017-Nov-23 20:12 247 15 gusting 19 3.9
2017-Nov-23 20:03 253 14 gusting 13 3.9
2017-Nov-23 19:58 239 15 gusting 21 3.9
2017-Nov-23 19:53 265 14 gusting 21 3.9
2017-Nov-23 19:47 270 11 gusting 14 3.9
2017-Nov-23 19:42 224 11 gusting 8 3.9
2017-Nov-23 19:37 258 13 gusting 12 3.9
2017-Nov-23 19:32 201 10 gusting 17 3.9
2017-Nov-23 19:27 224 18 gusting 18 3.3
2017-Nov-23 19:22 255 19 gusting 15 3.3
2017-Nov-23 19:17 247 15 gusting 13 3.3
2017-Nov-23 19:12 229 13 gusting 13 3.3
2017-Nov-23 19:07 247 13 gusting 12 3.3
2017-Nov-23 19:02 226 13 gusting 13 3.3
2017-Nov-23 18:57 253 18 gusting 14 3.3
2017-Nov-23 18:52 257 27 gusting 22 3.3
2017-Nov-23 18:47 225 17 gusting 13 2.8
2017-Nov-23 18:43 224 10 gusting 8 2.8
2017-Nov-23 18:37 188 11 gusting 8 2.8
2017-Nov-23 18:33 217 9 gusting 7 2.8
2017-Nov-23 18:27 180 7 gusting 6 2.8
2017-Nov-23 18:22 201 4 gusting 2 2.8
2017-Nov-23 18:17 205 2 gusting 5 2.8
2017-Nov-23 18:12 247 6 gusting 6 2.8
2017-Nov-23 18:07 269 7 gusting 6 2.8
2017-Nov-23 18:02 269 10 gusting 13 2.8
2017-Nov-23 17:57 261 19 gusting 17 2.8
2017-Nov-23 17:52 299 13 gusting 12 2.8
2017-Nov-23 17:47 291 15 gusting 15 2.8
2017-Nov-23 17:42 269 13 gusting 13 2.8
2017-Nov-23 17:37 258 15 gusting 17 2.8
2017-Nov-23 17:32 314 13 gusting 20 2.8
2017-Nov-23 17:27 291 17 gusting 14 2.8
2017-Nov-23 17:22 230 14 gusting 14 2.8
2017-Nov-23 17:17 291 19 gusting 19 2.8
2017-Nov-23 17:12 286 13 gusting 12 2.8
2017-Nov-23 17:07 250 17 gusting 18 2.2
2017-Nov-23 17:02 290 14 gusting 13 2.2
2017-Nov-23 16:57 269 13 gusting 19 2.2
2017-Nov-23 16:52 269 16 gusting 19 1.7
2017-Nov-23 16:47 269 11 gusting 10 1.7
2017-Nov-23 16:42 267 11 gusting 13 1.7
2017-Nov-23 16:37 260 13 gusting 13 1.1
2017-Nov-23 16:32 283 10 gusting 12 1.1
2017-Nov-23 16:27 264 10 gusting 13 1.1
2017-Nov-23 16:22 269 11 gusting 12 1.1
2017-Nov-23 16:17 252 13 gusting 13 1.1
2017-Nov-23 16:12 288 14 gusting 13 1.1
2017-Nov-23 16:07 269 13 gusting 13 1.7
2017-Nov-23 16:02 312 13 gusting 19 1.7
2017-Nov-23 15:57 300 27 gusting 22 2.2
2017-Nov-23 15:52 280 18 gusting 24 2.8
2017-Nov-23 15:47 291 27 gusting 26 3.3
2017-Nov-23 15:42 269 24 gusting 21 3.3
2017-Nov-23 15:37 291 15 gusting 17 3.3
2017-Nov-23 15:32 291 19 gusting 15 3.3
2017-Nov-23 15:28 309 21 gusting 18 3.9
2017-Nov-23 15:23 314 14 gusting 13 3.9
2017-Nov-23 15:17 335 11 gusting 12 3.9
2017-Nov-23 15:12 355 10 gusting 12 3.9
2017-Nov-23 15:07 358 9 gusting 13 3.9
2017-Nov-23 15:02 357 13 gusting 13 3.9
2017-Nov-23 14:57 354 14 gusting 13 4.4
2017-Nov-23 14:52 318 13 gusting 12 4.4
2017-Nov-23 14:47 015 14 gusting 13 4.4
2017-Nov-23 14:42 335 13 gusting 13 4.4
2017-Nov-23 14:37 293 7 gusting 10 5.0
2017-Nov-23 14:32 292 3 gusting 12 5.0
2017-Nov-23 14:27 293 8 gusting 12 5.0
2017-Nov-23 14:22 293 16 gusting 19 5.0
2017-Nov-23 14:17 319 16 gusting 14 5.6
2017-Nov-23 14:12 5.6
2017-Nov-23 14:07 269 8 gusting 12 5.6
2017-Nov-23 14:02 270 12 gusting 10 6.1
2017-Nov-23 13:57 314 8 gusting 10 7.2
2017-Nov-23 13:52 265 12 gusting 13 7.8
2017-Nov-23 13:47 221 17 gusting 19 7.8
2017-Nov-23 13:42 179 14 gusting 13 7.2
2017-Nov-23 13:37 202 8 gusting 8 7.2
2017-Nov-23 13:32 180 9 gusting 10 7.2
2017-Nov-23 13:27 176 8 gusting 7 7.2
2017-Nov-23 13:22 177 5 gusting 6 7.2
2017-Nov-23 13:17 137 6 gusting 6 7.2
2017-Nov-23 13:12 178 3 gusting 5 7.2
2017-Nov-23 13:07 180 5 gusting 5 7.2
2017-Nov-23 13:02 177 5 gusting 6 7.2
2017-Nov-23 12:57 175 5 gusting 4 7.2
2017-Nov-23 12:52 179 3 gusting 4 7.2
2017-Nov-23 12:47 159 1 gusting 4 7.2
2017-Nov-23 12:42 138 3 gusting 5 7.2
2017-Nov-23 12:37 201 4 gusting 4 7.2
2017-Nov-23 12:32 182 3 gusting 4 6.7
2017-Nov-23 12:27 219 6 gusting 6 6.7
2017-Nov-23 12:22 201 5 gusting 5 6.7
2017-Nov-23 12:17 179 6 gusting 6 6.7
2017-Nov-23 12:12 203 6 gusting 8 7.2
2017-Nov-23 12:07 201 11 gusting 10 7.2
2017-Nov-23 12:02 199 7 gusting 10 7.2
2017-Nov-23 11:57 168 6 gusting 10 7.2
2017-Nov-23 11:52 170 8 gusting 8 6.7
2017-Nov-23 11:47 202 7 gusting 10 7.2
2017-Nov-23 11:42 168 7 gusting 7 7.2
2017-Nov-23 11:37 179 6 gusting 7 7.2
2017-Nov-23 11:32 188 6 gusting 6 7.2
2017-Nov-23 11:28 179 6 gusting 6 7.2
2017-Nov-23 11:22 197 7 gusting 6 6.7
2017-Nov-23 11:17 179 6 gusting 6 6.7
2017-Nov-23 11:12 177 4 gusting 4 6.7
2017-Nov-23 11:07 158 4 gusting 5 6.7
2017-Nov-23 11:02 178 2 gusting 4 6.7
2017-Nov-23 10:57 179 3 gusting 2 6.7
2017-Nov-23 10:52 224 3 gusting 2 6.7
2017-Nov-23 10:47 210 1 gusting 1 6.7
2017-Nov-23 10:42 247 1 gusting 1 6.7
2017-Nov-23 10:37 277 2 gusting 2 6.7
2017-Nov-23 10:32 262 3 gusting 2 6.7
2017-Nov-23 10:27 247 2 gusting 2 6.7
2017-Nov-23 10:22 269 1 gusting 2 6.7
2017-Nov-23 10:17 269 3 gusting 2 6.7
2017-Nov-23 10:12 270 3 gusting 2 6.7
2017-Nov-23 10:07 269 2 gusting 2 6.7
2017-Nov-23 10:02 291 1 gusting 2 6.7
2017-Nov-23 09:57 300 2 gusting 2 6.7
2017-Nov-23 09:52 284 2 gusting 2 6.7
2017-Nov-23 09:48 291 2 gusting 2 6.7
2017-Nov-23 09:42 291 3 gusting 2 6.7
2017-Nov-23 09:38 292 2 gusting 2 6.7
2017-Nov-23 09:32 281 4 gusting 2 6.7
2017-Nov-23 09:27 304 0 gusting 1 6.7
2017-Nov-23 09:22 337 6.7
2017-Nov-23 09:17 338 2 gusting 2 6.7
2017-Nov-23 09:12 348 1 gusting 0 6.7
2017-Nov-23 09:08 018 1 gusting 2 6.7
2017-Nov-23 09:02 359 4 gusting 4 6.7
2017-Nov-23 08:57 018 5 gusting 4 6.7
2017-Nov-23 08:53 354 2 gusting 4 6.7
2017-Nov-23 08:47 345 5 gusting 4 6.7
2017-Nov-23 08:42 326 4 gusting 5 6.1
2017-Nov-23 08:37 326 6 gusting 6 6.1
2017-Nov-23 08:32 329 4 gusting 5 6.1
2017-Nov-23 08:27 314 5 gusting 5 6.1
2017-Nov-23 08:22 299 6 gusting 6 6.1
2017-Nov-23 08:18 338 5 gusting 4 6.1
2017-Nov-23 08:08 359 4 gusting 6 6.7
2017-Nov-23 08:03 342 5 gusting 5 6.7
2017-Nov-23 07:57 330 6 gusting 6 6.7
2017-Nov-23 07:52 323 3 gusting 4 6.7
2017-Nov-23 07:47 314 4 gusting 5 6.7
2017-Nov-23 07:42 337 4 gusting 5 6.7
2017-Nov-23 07:37 351 4 gusting 4 6.7
2017-Nov-23 07:32 329 6 gusting 6 6.7
2017-Nov-23 07:27 323 3 gusting 5 6.7
2017-Nov-23 07:22 354 4 gusting 5 6.7
2017-Nov-23 07:17 356 5 gusting 6 6.7
2017-Nov-23 07:12 318 3 gusting 5 6.7
2017-Nov-23 07:07 354 4 gusting 5 6.7
2017-Nov-23 07:03 314 5 gusting 6 6.7
2017-Nov-23 06:58 328 4 gusting 6 6.7
2017-Nov-23 06:53 337 5 gusting 5 6.7
2017-Nov-23 06:48 325 6 gusting 6 6.7
2017-Nov-23 06:43 259 1 gusting 2 6.7
2017-Nov-23 06:38 346 6 gusting 6 6.7
2017-Nov-23 06:32 359 3 gusting 6 6.7
2017-Nov-23 06:27 298 1 gusting 2 6.7
2017-Nov-23 06:22 005 7 gusting 6 6.7
2017-Nov-23 06:17 337 4 gusting 5 6.7
2017-Nov-23 06:12 6.7
2017-Nov-23 06:07 022 5 gusting 5 6.7
2017-Nov-23 06:02 6.7
2017-Nov-23 05:57 015 4 gusting 5 6.7
2017-Nov-23 05:52 010 5 gusting 6 6.7
2017-Nov-23 05:47 353 6 gusting 6 6.7
2017-Nov-23 05:42 359 6 gusting 6 6.7
2017-Nov-23 05:37 7.2
2017-Nov-23 05:32 018 6 gusting 7 7.2
2017-Nov-23 05:27 337 7 gusting 6 7.2
2017-Nov-23 05:22 320 7 gusting 6 7.2
2017-Nov-23 05:17 339 5 gusting 6 7.2
2017-Nov-23 05:12 355 5 gusting 5 7.2
2017-Nov-23 05:07 347 5 gusting 5 7.2
2017-Nov-23 05:02 359 5 gusting 4 7.2
2017-Nov-23 04:57 333 4 gusting 6 7.2
2017-Nov-23 04:52 337 5 gusting 6 7.2
2017-Nov-23 04:47 315 4 gusting 2 7.2
2017-Nov-23 04:42 7.2
2017-Nov-23 04:37 315 2 gusting 1 7.2
2017-Nov-23 04:32 359 4 gusting 4 7.2
2017-Nov-23 04:28 340 1 gusting 4 7.2
2017-Nov-23 04:22 338 1 gusting 4 7.2
2017-Nov-23 04:17 002 4 gusting 4 7.2
2017-Nov-23 04:12 357 3 gusting 2 7.2
2017-Nov-23 04:07 316 2 gusting 2 7.2
2017-Nov-23 04:02 7.8
2017-Nov-23 03:57 7.8
2017-Nov-23 03:52 355 1 gusting 1 7.8
2017-Nov-23 03:47 337 0 gusting 2 7.8
2017-Nov-23 03:42 7.8
2017-Nov-23 03:37 269 3 gusting 5 7.8
2017-Nov-23 03:32 294 1 gusting 1 7.8
2017-Nov-23 03:27 7.8
2017-Nov-23 03:22 022 0 gusting 0 7.8
2017-Nov-23 03:17 021 1 gusting 0 7.8
2017-Nov-23 03:12 021 1 gusting 1 7.8
2017-Nov-23 03:07 022 0 gusting 2 7.8
2017-Nov-23 03:02 045 2 gusting 1 7.8
2017-Nov-23 02:57 044 1 gusting 1 7.8
2017-Nov-23 02:52 045 2 gusting 1 7.8
2017-Nov-23 02:47 044 1 gusting 1 7.8
2017-Nov-23 02:42 044 2 gusting 1 7.8
2017-Nov-23 02:37 044 2 gusting 1 7.8
2017-Nov-23 02:32 291 0 gusting 0 7.8
2017-Nov-23 02:27 292 0 gusting 0 7.8
2017-Nov-23 02:22 292 7.8
2017-Nov-23 02:17 292 0 gusting 0 7.8
2017-Nov-23 02:12 292 0 gusting 0 7.8
2017-Nov-23 02:07 291 7.8
2017-Nov-23 02:02 270 7.8
2017-Nov-23 01:57 269 0 gusting 0 7.8
2017-Nov-23 01:52 269 1 gusting 1 7.8
2017-Nov-23 01:47 258 3 gusting 2 7.8
2017-Nov-23 01:42 338 2 gusting 2 7.8
2017-Nov-23 01:37 012 2 gusting 6 7.8
2017-Nov-23 01:32 012 4 gusting 5 7.8
2017-Nov-23 01:27 359 2 gusting 4 7.8
2017-Nov-23 01:22 015 3 gusting 4 7.8
2017-Nov-23 01:17 009 1 gusting 2 7.8
2017-Nov-23 01:12 202 2 gusting 4 7.8
2017-Nov-23 01:07 202 3 gusting 6 7.8
2017-Nov-23 01:02 224 6 gusting 6 7.8
2017-Nov-23 00:57 202 7 gusting 7 7.8
2017-Nov-23 00:52 189 11 gusting 10 7.8
2017-Nov-23 00:47 189 8 gusting 6 7.8
2017-Nov-23 00:42 179 8 gusting 6 7.8
2017-Nov-23 00:37 201 7 gusting 7 7.8
2017-Nov-23 00:32 180 10 gusting 10 7.8
2017-Nov-23 00:27 218 10 gusting 10 7.8
2017-Nov-23 00:22 179 9 gusting 7 7.8
2017-Nov-23 00:17 197 10 gusting 8 7.8
2017-Nov-23 00:12 182 10 gusting 8 7.8
2017-Nov-23 00:07 202 8 gusting 8 8.3
2017-Nov-23 00:02 222 10 gusting 8 8.3
2017-Nov-22 23:57 201 10 gusting 8 8.3
2017-Nov-22 23:52 201 8 gusting 10 8.3
2017-Nov-22 23:47 214 9 gusting 11 8.3
2017-Nov-22 23:42 224 8 gusting 11 8.9
2017-Nov-22 23:37 212 15 gusting 13 8.9
2017-Nov-22 23:32 180 15 gusting 15 8.9
2017-Nov-22 23:27 188 19 gusting 15 8.9
2017-Nov-22 23:22 180 17 gusting 15 8.9
2017-Nov-22 23:17 194 20 gusting 19 8.9
2017-Nov-22 23:12 199 17 gusting 18 8.9
2017-Nov-22 23:08 179 18 gusting 14 8.9
2017-Nov-22 23:02 162 25 gusting 24 8.9
2017-Nov-22 22:57 158 20 gusting 17 8.9
2017-Nov-22 22:47 201 13 gusting 14 8.9
2017-Nov-22 22:42 160 16 gusting 18 8.9
2017-Nov-22 22:37 182 19 gusting 20 8.9
2017-Nov-22 22:32 181 18 gusting 18 8.9
2017-Nov-22 22:27 179 18 gusting 17 8.3
2017-Nov-22 22:22 201 17 gusting 17 8.3
2017-Nov-22 22:17 201 15 gusting 13 8.3
2017-Nov-22 22:12 184 13 gusting 15 8.3
2017-Nov-22 22:07 184 17 gusting 15 8.3
2017-Nov-22 22:02 152 19 gusting 19 7.8
2017-Nov-22 21:57 177 19 gusting 18 7.8
2017-Nov-22 21:52 171 19 gusting 19 7.8
2017-Nov-22 21:47 177 19 gusting 18 7.2
2017-Nov-22 21:42 157 16 gusting 13 6.7
2017-Nov-22 21:37 115 10 gusting 12 6.7
2017-Nov-22 21:32 128 10 gusting 13 6.7
2017-Nov-22 21:27 127 10 gusting 13 6.7
2017-Nov-22 21:22 179 11 gusting 13 6.1
2017-Nov-22 21:17 119 15 gusting 18 6.1
2017-Nov-22 21:12 120 12 gusting 15 6.1
2017-Nov-22 21:07 125 19 gusting 18 6.1
2017-Nov-22 21:02 099 19 gusting 20 6.1